THORAD DELTA 1 DEB, 42616

Orbit data source: Space-Track

THORAD DELTA 1 DEB, 42616 is space debris in LEO originally from a launch on Fri, 15 Nov 1974 UTC launched from the Air Force Western Test Range (AFWTR). Debris objects in space refer to the collection of defunct objects orbiting the Earth. Examples of debris include non-operational satellites, rocket bodies, and fragments generated from explosions, collisions, or faulty payload assembly.

Loading next visibility...
Identifier
42616, 1974-089GH
Orbit
LEO
Country
Flag of USUS
Related business
Manufacturer
Unknown
Mission
Spacecraft
Bus & Motor
Unknown
Mass
Unknown
Launch date (UTC)
1974-11-15 (51 years ago)
Launch vehicle
Unknown
Launch site
Air Force Western Test Range (AFWTR)
Object type
Payload
Rocket body
Debris
Shape & HBR
Unknown shape, 0.1 m
Radar Cross Section
Small (<0.1 m²)

Expand to show TLE details & history
Last TLE update: 6 days ago

TLE from 6 days ago
0 THORAD DELTA 1 DEB
1 42616U 74089GH  25298.65592170 -.00000007  00000-0  35768-3 0  9998
2 42616 101.4097 266.4029 0497509 147.4540  32.1500 11.58971214863132
Epoch: 2025-10-25T15:44Z
TLE epoch observation values (Epoch: 2025-10-25T15:44:31.634Z)
Latitude
-2.86725°
Longitude
175.41145°
Altitude
1,531.522 km
Speed
7.245 km/s
True Right ascension
05h 43m 18s
True Declination
-2° 51' 06"
Sunlit
Object was in daylight at epoch
Visualization orbit readout
Latitude
Unknown
Longitude
Unknown
Altitude
Unknown
Speed
Unknown
Apparent Right ascension
Unknown
Apparent Declination
Unknown
Sunlit
N/A
Visualization observer readout
Local Sidereal Time
20:10:54
Azimuth
Unknown
Elevation
Unknown
Doppler factor
Unknown
Orbital elements
Apogee altitude
2,277.826 km
Perigee altitude
1,457.361 km
Semi-major axis
8,245.731 km
Eccentricity
0.04975
Inclination
101.4097°
RAAN
266.4029°
Arg. of periapsis
147.454°
True anomaly
35.35027°
Mean anomaly
32.15°
Eccentric anomaly
33.73296°
Mean motion
2.89867 °/min
Orbital period
124.19 mins
BSTAR
0.00035768
Loading maneuver chart data...
Computing Atmospheric mass density...

Documentation

Showing up to 5 results
|